Weather in Sadove

Ukraine / Kharkiv Region     49°13′40″N   35°27′11″E
temp.,
°C
wind,
m/s
gust,
m/s
humid.,
%
clouds,
%
prec.,
mm/h
press.,
hPa
HPBL,
m
9 may, sun
sun900:00+6nw71182100 0.1 10131058
03:00+5nw61287100 0.1 1015756
06:00+5nw71179100 0.0 1016939
09:00+8nw812635 0.0 10181325
12:00+11nw9114544 0.0 10182163
15:00+12nw91140100 0.0 10202631
18:00+11nnw6105413 0.0 10212408
21:00+6nw49705 0.0 1024170
10 may, mon
mon1000:00+5nw49791 0.0 1025148
03:00+4nw48825 0.0 1026146
06:00+4nw410790 0.0 1026214
09:00+11nnw69541 0.0 1026749
12:00+14nnw89405 0.0 10242295
15:00+15nnw8104093 0.0 10232523
18:00+13nnw71152100 0.0 10212039
21:00+10nnw71458100 0.0 1020798
11 may, tue
tue1100:00+9nnw101767100 0.1 1017895
03:00+9n9177696 0.3 1016643
06:00+10n81679100 0.0 1015756
09:00+12nne71283100 0.1 10141010
12:00+11ene61189100 0.2 1015837
15:00+11ene81067100 0.3 10161466
18:00+11ne7126968 0.1 10161314
21:00+8ne8138194 0.1 10161031
12 may, wed
wed1200:00+8e81388100 0.1 10161192
03:00+8e91387100 0.4 1017877
06:00+7e81187100 0.1 1017950
09:00+8e71087100 0.3 10171035
12:00+9e71084100 0.6 10151188
15:00+12ese587770 4.0 10141057
18:00+13s57716 2.8 10131052
21:00+8s22875 3.6 101419
13 may, thu
thu1300:00+7sse338917 0.0 101531
03:00+7se22913 0.0 101519
06:00+7ese359821 0.0 1016108
09:00+14se46775 0.0 1016587
12:00+19se565856 0.0 10151243
15:00+22se685184 0.0 10131954
18:00+19ese4868100 0.0 1013306
21:00+16ese41180100 0.0 1013227